Regional Weather Roundup
Issued by NWS Newport/Morehead, NC

Current Version | Previous Version | Text Only | Print | Product List | Glossary On
Versions: 1 2 3 4 5 6 7 8 9 10 11 12 13 14 15 16 17 18 19 20 21 22 23 24 25 26 27 28 29 30 31 32 33 34 35 36 37 38 39 40 41 42 43 44 45 46 47 48 49 50
000
ASUS42 KMHX 010912
RWRMHX
WEATHER ROUNDUP FOR EASTERN NORTH CAROLINA
NATIONAL WEATHER SERVICE NEWPORT/MOREHEAD CITY NC
500 AM EDT WED APR 01 2015

NOTE: "FAIR" INDICATES FEW OR NO CLOUDS BELOW 12,000 FEET
WITH NO SIGNIFICANT WEATHER AND/OR OBSTRUCTIONS TO VISIBILITY

NCZ015>017-031-032-045>047-102-103-011000-
NORTH COAST

CITY           SKY/WX    TMP DP  RH WIND       PRES   REMARKS
EDENTON        CLEAR     50  41  72 NE7       29.93R
ELIZABETH CITY PTCLDY    46  38  73 N16G23    29.94R
KITTY HAWK     SUNNY     45  38  75 N12G22    29.91R
MANTEO         CLEAR     46  38  73 N22G31    29.93R

$$

NCZ045>047-081-094-103-104-011000-
CENTRAL COAST

CITY           SKY/WX    TMP DP  RH WIND       PRES   REMARKS
FRISCO         CLEAR     52  44  74 N10G20    29.88R
SWANQUARTER      N/A     52 N/A N/A NE12G17   29.85S

$$

NCZ095-097-098-100-101-011000-
SOUTHERN COAST

CITY           SKY/WX    TMP DP  RH WIND       PRES   REMARKS
BEAUFORT       CLEAR     57  50  77 N21G29    29.87R
CEDAR ISLAND     N/A     55 N/A N/A N21       29.91S
JACKSONVILLE   CLEAR     56  50  80 N8        29.86R
PINEY ISLAND   SUNNY    N/A N/A N/A NE13      29.88R
WILMINGTON     CLEAR     60  54  80 SW9       29.84R


$$

NCZ011>013-027>030-043-044-078>080-089-090>093-098-011000-
COASTAL PLAIN

CITY           SKY/WX    TMP DP  RH WIND       PRES   REMARKS
AHOSKIE        CLEAR     49  38  66 N9        29.94R
CLINTON        CLEAR     56  48  75 N6        29.89R
ELIZABETHTOWN  CLEAR     59  51  74 NW5       29.87R
GOLDSBORO      CLEAR     55  49  79 N8        29.88R
GREENVILLE     CLEAR     52  41  66 NE5       29.94R
HAVELOCK       CLEAR     57  46  66 NE15      29.89R
KENANSVILLE    CLEAR     56  45  67 N6        29.89R
KINSTON        CLEAR     54  43  66 NE9       29.90R
NEW BERN       CLEAR     56  42  59 NE14      29.90R
RICHLANDS      CLEAR     50  45  81 CALM      29.88R
ROCKY MOUNT    CLEAR     53  40  61 NE10      29.93R
WASHINGTON     CLEAR     51  41  67 NE6       29.92R
WHITEVILLE     PTCLDY    61  53  74 CALM      29.85R

$$

AMZ130-135-150-152-154-156-158-170-250-252-270-ANZ085-086-088-633-658-670-011000-
MARINE OBSERVATIONS

STATION/POSITION TIME  TEMP    WIND        PRES    WAVE   SWELL
                       AIR SEA DIR/SP/G            HT/PER HT/PER
                 (UTC) (F)     (DEG/KT/KT) (MB)    (FT/S) (FT/S)
CHESAPEAKE LIGHT 0800   44     360/ 24/ 26 1013.5
64 E VA BEACH    0850   45 49  360/ 25/ 29 1011.9    5/ 7   3/ 7
DUCK             0800   47 41   10/ 15/ 19 1011.7
2 E DUCK         0811      42                N/A     2/ 3
10 NE DUCK       NOT AVBL
OREGON INLET     0800   46 55  350/ 10/ 14 1011.8
HATTERAS CG      0800   55 58   10/ 16/ 19 1011.3
CAPE LOOKOUT     0900   58      10/  7/  9 1011.1
BEAUFORT LAB     0800   61 54  330/  6/ 19 1009.6
27 SE WRIGHTSVLE 0800   61 64  260/ 17/ 21 1011.6
5 SE WRIGHTSVLE  0800   59 56  250/  8/ 10 1010.2
225 S CAPE HAT   0850   69 68  230/ 16/ 19 1012.9    7/ 7
41 SE CHARLESTON 0850   68 68  260/ 16/ 17 1011.8    5/ 6   2/ 9

$$



USA.gov is the U.S. government's official web portal to all federal, state and local government web resources and services.